Flag for U.S.A. Weather past 2 weeks in Huntsville, Alabama, U.S.A.

Now
60 °F

Clear.


Feels Like: 60 °F
Forecast: 43 / 66 °F
Wind: 7 mph from North

Location: Huntsville International / Jones Field

Current Time: Oct 21, 2014 at 10:40:07 PM

Latest Report: Oct 21, 2014 at 9:53 PM


Visibility: 10 mi

Pressure: 30.06 "Hg

Humidity: 65%

Dew point: 48 °F

Location of HuntsvilleLocation

Historic Weather in Huntsville — Graph

°F

Huntsville temperature yesterday

Maximum temperature yesterday: 71 °F (at 1:53 PM)
Minimum temperature yesterday: 46 °F (at 1:53 AM)
Average temperature yesterday: 58 °F

Past Weeks' High & Low Weather Summary

 TemperatureHumidityPressure
High87 °F (Oct 9, 2:53 PM)100% (Oct 12, 1:53 PM)30.20 "Hg (Oct 12, 1:53 PM)
Low46 °F (Oct 20, 1:53 AM)31% (Oct 21, 2:53 PM)29.64 "Hg (Oct 14, 3:53 AM)
Average66 °F75%29.97 "Hg
* Reported Oct 6 8:53 PM — Oct 21 8:53 PM, Huntsville, Weather by CustomWeather, © 2014

Note: Actual official high and low records may vary slightly from our data, if they occured in-between our weather recording intervals... More about our weather records

Advertising

Huntsville weather history for previous 24 hours

 ConditionsComfort  
Time TempWeatherWind HumidityBarometerVisibility
8:53 PM
Oct 21
59 °FClear.3 mph64%30.04 "Hg10 mi
7:53 PM60 °FClear.5 mph62%30.03 "Hg10 mi
6:53 PM66 °FSunny.3 mph49%30.01 "Hg10 mi
5:53 PM70 °FSunny.6 mph41%30.00 "Hg10 mi
4:53 PM75 °FSunny.9 mph32%29.99 "Hg10 mi
3:53 PM76 °FSunny.7 mph32%29.99 "Hg10 mi
2:53 PM76 °FSunny.7 mph31%30.00 "Hg10 mi
1:53 PM75 °FSunny.12 mph36%30.01 "Hg10 mi
12:53 PM74 °FPassing clouds.13 mph38%30.03 "Hg10 mi
11:53 AM72 °FPassing clouds.6 mph44%30.05 "Hg10 mi
10:53 AM68 °FSunny.3 mph59%30.06 "Hg10 mi
9:53 AM63 °FSunny.No wind70%30.07 "Hg10 mi
8:53 AM59 °FSunny.No wind78%30.06 "Hg10 mi
7:53 AM53 °FClear.No wind89%30.05 "Hg10 mi
6:53 AM51 °FPassing clouds.No wind86%30.03 "Hg10 mi
5:53 AM51 °FPassing clouds.No wind89%30.03 "Hg10 mi
4:53 AM50 °FPassing clouds.No wind89%30.02 "Hg7 mi
3:53 AM51 °FClear.No wind89%30.01 "Hg10 mi
2:53 AM51 °FClear.No wind89%30.02 "Hg9 mi
1:53 AM52 °FClear.3 mph86%30.01 "Hg10 mi
12:53 AM53 °FClear.No wind86%30.02 "Hg10 mi
11:53 PM
Oct 20
53 °FClear.No wind89%30.02 "Hg10 mi
10:53 PM55 °FClear.No wind83%30.03 "Hg10 mi
Weather by CustomWeather, © 2014

See weather overviewHow to use our weather pages